Aitkin, MN

4:50 PM CDT on May 28, 2017 (GMT -0500)
Aitkin Municipal / Steve Kurtz Field

Weather History for KAIT - November, 2012

Change the Weather History Date:

Thursday, November 29, 2012

  Actual Average Record
Temperature  
Mean Temperature 19 °F -  
Max Temperature 26 °F 29 °F 55 °F (1998)
Min Temperature 12 °F 10 °F -17 °F (1985)
Degree Days  
Heating Degree Days 46    
Moisture  
Dew Point 17 °F    
Average Humidity 76    
Maximum Humidity 86    
Minimum Humidity 69    
Precipitation  
Precipitation 0.00 in - - ()
Sea Level Pressure  
Sea Level Pressure 30.12 in    
Wind  
Wind Speed 4 mph (NE)    
Max Wind Speed 13 mph    
Max Gust Speed 18 mph    
Visibility 8 miles    
Events      
Averages and records for this station are not official NWS values.
T = Trace of Precipitation, MM = Missing Value Source: NWS Daily Summary

Daily Weather History Graph

Daily Weather History Graph

Search for Another Location

Airport or City:

Trip Planner

Search our weather history database for the weather conditions in past years. The results will help you decide how hot, cold, wet, or windy it might be!

Date:

Astronomy

Nov. 29, 2012 Rise Set
Actual Time 7:36 AM CST 4:29 PM CST
Civil Twilight 7:02 AM CST 5:04 PM CST
Nautical Twilight 6:24 AM CST 5:41 PM CST
Astronomical Twilight 5:48 AM CST 6:18 PM CST
Moon 5:33 PM CST (11/29) 8:24 AM CST (11/29)
Length of Visible Light 10h 01m
Length of Day
8h 53m
Full, 99% of the Moon is Illuminated
Nov 29
Full
Dec 6
Last Quarter
Dec 13
New
Dec 19
First Quarter
Dec 28
Full

Hourly Weather History & Observations

Time (CST) Temp. Windchill Dew Point Humidity Pressure Visibility Wind Dir Wind Speed Gust Speed Precip Events Conditions
12:12 AM 23.0 °F - 17.6 °F 80% 30.06 in 7.0 mi Calm Calm - N/A   Clear
12:33 AM 21.2 °F - 15.8 °F 80% 30.06 in 5.0 mi Calm Calm - N/A   Haze
12:52 AM 19.4 °F - 14.0 °F 80% 30.06 in 2.5 mi Calm Calm - N/A   Haze
1:12 AM 19.4 °F - 12.2 °F 74% 30.06 in 4.0 mi Calm Calm - N/A   Haze
1:33 AM 19.4 °F - 12.2 °F 74% 30.07 in 3.0 mi Calm Calm - N/A   Haze
1:52 AM 17.6 °F - 12.2 °F 79% 30.05 in 4.0 mi Calm Calm - N/A   Haze
2:12 AM 17.6 °F - 12.2 °F 79% 30.05 in 4.0 mi Calm Calm - N/A   Haze
2:33 AM 17.6 °F - 10.4 °F 73% 30.06 in 4.0 mi Calm Calm - N/A   Haze
2:52 AM 14.0 °F - 8.6 °F 79% 30.07 in 4.0 mi Calm Calm - N/A   Haze
3:12 AM 15.8 °F - 8.6 °F 73% 30.07 in 5.0 mi Calm Calm - N/A   Haze
3:32 AM 14.0 °F - 8.6 °F 79% 30.07 in 2.0 mi Calm Calm - N/A   Haze
3:52 AM 14.0 °F - 8.6 °F 79% 30.06 in 0.8 mi Calm Calm - N/A   Haze
4:13 AM 12.2 °F - 6.8 °F 79% 30.08 in 5.0 mi Calm Calm - N/A   Haze
4:33 AM 12.2 °F - 6.8 °F 79% 30.09 in 7.0 mi Calm Calm - N/A   Clear
4:52 AM 12.2 °F - 6.8 °F 79% 30.08 in 5.0 mi Calm Calm - N/A   Haze
5:13 AM 12.2 °F - 6.8 °F 79% 30.09 in 7.0 mi Calm Calm - N/A   Clear
5:52 AM 15.8 °F - 10.4 °F 79% 30.09 in 5.0 mi Calm Calm - N/A   Haze
6:13 AM 17.6 °F - 12.2 °F 79% 30.10 in 7.0 mi Calm Calm - N/A   Overcast
6:33 AM 19.4 °F - 15.8 °F 86% 30.10 in 7.0 mi Calm Calm - N/A   Overcast
6:52 AM 21.2 °F - 15.8 °F 80% 30.10 in 7.0 mi Calm Calm - N/A   Overcast
7:13 AM 21.2 °F - 17.6 °F 86% 30.12 in 7.0 mi Calm Calm - N/A   Overcast
7:33 AM 23.0 °F - 17.6 °F 80% 30.12 in 7.0 mi Calm Calm - N/A   Overcast
7:52 AM 23.0 °F 18.4 °F 17.6 °F 80% 30.12 in 7.0 mi NE 3.5 mph - N/A   Overcast
8:13 AM 24.8 °F 19.1 °F 17.6 °F 74% 30.12 in 5.0 mi ENE 4.6 mph - N/A   Haze
8:32 AM 24.8 °F 17.9 °F 19.4 °F 80% 30.12 in 7.0 mi ENE 5.8 mph - N/A   Overcast
8:53 AM 24.8 °F 16.1 °F 19.4 °F 80% 30.12 in 7.0 mi NE 8.1 mph - N/A   Overcast
9:13 AM 24.8 °F 16.9 °F 19.4 °F 80% 30.13 in 7.0 mi NE 6.9 mph - N/A   Overcast
9:32 AM 24.8 °F 17.9 °F 19.4 °F 80% 30.13 in 7.0 mi ENE 5.8 mph - N/A   Overcast
9:53 AM 26.6 °F 18.2 °F 19.4 °F 74% 30.13 in 10.0 mi NNE 8.1 mph - N/A   Overcast
10:13 AM 26.6 °F 17.5 °F 19.4 °F 74% 30.14 in 10.0 mi NE 9.2 mph - N/A   Overcast
10:32 AM 26.6 °F 20.0 °F 19.4 °F 74% 30.16 in 10.0 mi NE 5.8 mph - N/A   Overcast
10:53 AM 26.6 °F 16.8 °F 19.4 °F 74% 30.15 in 10.0 mi NE 10.4 mph - N/A   Overcast
11:13 AM 26.6 °F 19.1 °F 19.4 °F 74% 30.15 in 10.0 mi NNE 6.9 mph - N/A   Overcast
11:32 AM 26.6 °F 18.2 °F 19.4 °F 74% 30.15 in 10.0 mi NNE 8.1 mph - N/A   Overcast
11:53 AM 26.6 °F 20.0 °F 17.6 °F 69% 30.14 in 10.0 mi NNE 5.8 mph - N/A   Overcast
12:13 PM 26.6 °F 19.1 °F 17.6 °F 69% 30.13 in 10.0 mi NNE 6.9 mph - N/A   Overcast
12:32 PM 26.6 °F 18.2 °F 17.6 °F 69% 30.13 in 10.0 mi NE 8.1 mph - N/A   Overcast
12:53 PM 26.6 °F 19.1 °F 19.4 °F 74% 30.13 in 10.0 mi NE 6.9 mph - N/A   Overcast
1:13 PM 26.6 °F 16.8 °F 17.6 °F 69% 30.13 in 10.0 mi ENE 10.4 mph - N/A   Overcast
1:14 PM 26.6 °F 16.8 °F 17.6 °F 69% 30.13 in 10.0 mi NE 10.4 mph - N/A   Overcast
1:53 PM 26.6 °F 18.2 °F 19.4 °F 74% 30.13 in 10.0 mi ENE 8.1 mph - N/A   Overcast
2:12 PM 26.6 °F 18.2 °F 19.4 °F 74% 30.12 in 10.0 mi ENE 8.1 mph - N/A   Overcast
2:33 PM 26.6 °F 17.5 °F 19.4 °F 74% 30.11 in 10.0 mi NE 9.2 mph - N/A   Overcast
2:53 PM 26.6 °F 19.1 °F 19.4 °F 74% 30.11 in 10.0 mi NE 6.9 mph - N/A   Overcast
3:12 PM 26.6 °F 17.5 °F 19.4 °F 74% 30.12 in 10.0 mi NE 9.2 mph - N/A   Overcast
3:33 PM 26.6 °F 17.5 °F 19.4 °F 74% 30.13 in 10.0 mi NE 9.2 mph - N/A   Overcast
3:53 PM 26.6 °F 17.5 °F 19.4 °F 74% 30.12 in 10.0 mi NNE 9.2 mph - N/A   Overcast
4:12 PM 26.6 °F 16.2 °F 19.4 °F 74% 30.12 in 10.0 mi ENE 11.5 mph - N/A   Overcast
4:33 PM 26.6 °F 16.2 °F 19.4 °F 74% 30.11 in 10.0 mi ENE 11.5 mph 17.3 mph N/A   Overcast
4:53 PM 26.6 °F 17.5 °F 19.4 °F 74% 30.12 in 10.0 mi ENE 9.2 mph - N/A   Overcast
5:12 PM 26.6 °F 18.2 °F 19.4 °F 74% 30.13 in 10.0 mi ENE 8.1 mph 18.4 mph N/A   Overcast
5:33 PM 26.6 °F 17.5 °F 19.4 °F 74% 30.14 in 10.0 mi ENE 9.2 mph 17.3 mph N/A   Overcast
5:53 PM 26.6 °F 16.8 °F 19.4 °F 74% 30.14 in 10.0 mi ENE 10.4 mph - N/A   Overcast
6:12 PM 26.6 °F 16.8 °F 19.4 °F 74% 30.14 in 10.0 mi ENE 10.4 mph - N/A   Overcast
6:31 PM 26.6 °F 17.5 °F 19.4 °F 74% 30.15 in 10.0 mi East 9.2 mph 18.4 mph N/A   Overcast
6:54 PM 26.6 °F 16.2 °F 19.4 °F 74% 30.16 in 10.0 mi ENE 11.5 mph 16.1 mph N/A   Overcast
7:13 PM 26.6 °F 16.2 °F 19.4 °F 74% 30.16 in 10.0 mi ENE 11.5 mph 16.1 mph N/A   Overcast
7:32 PM 26.6 °F 16.2 °F 19.4 °F 74% 30.15 in 10.0 mi East 11.5 mph 16.1 mph N/A   Overcast
7:53 PM 26.6 °F 16.2 °F 19.4 °F 74% 30.15 in 10.0 mi East 11.5 mph 17.3 mph N/A   Overcast
8:13 PM 26.6 °F 15.7 °F 19.4 °F 74% 30.15 in 10.0 mi ENE 12.7 mph 18.4 mph N/A   Overcast
8:32 PM 26.6 °F 18.2 °F 19.4 °F 74% 30.15 in 10.0 mi East 8.1 mph 18.4 mph N/A   Overcast
8:53 PM 26.6 °F 19.1 °F 17.6 °F 69% 30.16 in 10.0 mi East 6.9 mph - N/A   Overcast
9:13 PM 24.8 °F 16.1 °F 19.4 °F 80% 30.16 in 10.0 mi ENE 8.1 mph - N/A   Overcast
9:32 PM 24.8 °F 16.1 °F 17.6 °F 74% 30.15 in 10.0 mi ENE 8.1 mph - N/A   Overcast
9:53 PM 24.8 °F 16.9 °F 17.6 °F 74% 30.16 in 10.0 mi ENE 6.9 mph - N/A   Overcast
10:12 PM 24.8 °F 16.9 °F 17.6 °F 74% 30.16 in 10.0 mi NE 6.9 mph - N/A   Overcast
10:53 PM 24.8 °F 19.1 °F 17.6 °F 74% 30.15 in 10.0 mi ENE 4.6 mph - N/A   Overcast
11:12 PM 24.8 °F 16.9 °F 17.6 °F 74% 30.15 in 10.0 mi ENE 6.9 mph - N/A   Overcast
11:33 PM 26.6 °F 19.1 °F 19.4 °F 74% 30.15 in 10.0 mi East 6.9 mph - N/A   Overcast
11:52 PM 26.6 °F 16.8 °F 19.4 °F 74% 30.16 in 10.0 mi ENE 10.4 mph - N/A   Overcast